Time,TemperatureF,DewpointF,PressureIn,WindDirection,WindDirectionDegrees,WindSpeedMPH,WindSpeedGustMPH,Humidity,HourlyPrecipIn,Conditions,Clouds,dailyrainin,SoftwareType,DateUTC
2013-06-12 00:02:00,57.0,41.0,29.51,North,352,0.0,0.0,55,0.00,,,0.00,,2013-06-12 08:02:00,
2013-06-12 00:12:00,57.0,41.0,29.51,North,352,0.0,0.0,55,0.00,,,0.00,,2013-06-12 08:12:00,
2013-06-12 00:22:00,57.0,41.0,29.51,North,352,0.0,0.0,55,0.00,,,0.00,,2013-06-12 08:22:00,
2013-06-12 00:33:00,57.0,41.0,29.51,North,352,0.0,0.0,55,0.00,,,0.00,,2013-06-12 08:33:00,
2013-06-12 00:43:00,56.0,39.0,29.51,North,352,0.0,0.0,52,0.00,,,0.00,,2013-06-12 08:43:00,
2013-06-12 00:52:00,56.0,39.0,29.51,North,352,0.0,0.0,52,0.00,,,0.00,,2013-06-12 08:52:00,
2013-06-12 01:01:00,55.0,38.0,29.51,North,352,0.0,0.0,52,0.00,,,0.00,,2013-06-12 09:01:00,
2013-06-12 01:11:00,54.0,36.0,29.51,North,352,0.0,0.0,50,0.00,,,0.00,,2013-06-12 09:11:00,
2013-06-12 01:22:00,54.0,36.0,29.51,North,352,0.0,0.0,50,0.00,,,0.00,,2013-06-12 09:22:00,
2013-06-12 01:33:00,54.0,36.0,29.51,North,352,0.0,0.0,50,0.00,,,0.00,,2013-06-12 09:33:00,
2013-06-12 01:42:00,53.0,35.0,29.51,North,352,0.0,0.0,51,0.00,,,0.00,,2013-06-12 09:42:00,
2013-06-12 01:53:00,53.0,35.0,29.51,North,352,0.0,0.0,51,0.00,,,0.00,,2013-06-12 09:53:00,
2013-06-12 02:01:00,53.0,35.0,29.51,North,352,0.0,0.0,51,0.00,,,0.00,,2013-06-12 10:01:00,
2013-06-12 02:11:00,52.0,35.0,29.51,North,352,0.0,0.0,52,0.00,,,0.00,,2013-06-12 10:11:00,
2013-06-12 02:22:00,52.0,35.0,29.51,North,352,0.0,0.0,52,0.00,,,0.00,,2013-06-12 10:22:00,
2013-06-12 02:32:00,52.0,35.0,29.51,North,352,0.0,0.0,52,0.00,,,0.00,,2013-06-12 10:32:00,
2013-06-12 02:43:00,51.0,34.0,29.51,North,352,0.0,0.0,51,0.00,,,0.00,,2013-06-12 10:43:00,
2013-06-12 02:53:00,51.0,34.0,29.51,North,352,0.0,0.0,51,0.00,,,0.00,,2013-06-12 10:53:00,
2013-06-12 03:02:00,51.0,34.0,29.51,North,352,0.0,0.0,51,0.00,,,0.00,,2013-06-12 11:02:00,
2013-06-12 03:12:00,51.0,33.0,29.51,North,352,0.0,0.0,50,0.00,,,0.00,,2013-06-12 11:12:00,
2013-06-12 03:23:00,51.0,33.0,29.51,North,352,0.0,0.0,50,0.00,,,0.00,,2013-06-12 11:23:00,
2013-06-12 03:33:00,51.0,33.0,29.51,North,352,0.0,0.0,50,0.00,,,0.00,,2013-06-12 11:33:00,
2013-06-12 03:43:00,51.0,33.0,29.51,North,352,0.0,0.0,50,0.00,,,0.00,,2013-06-12 11:43:00,
2013-06-12 03:53:00,51.0,33.0,29.51,North,352,0.0,0.0,50,0.00,,,0.00,,2013-06-12 11:53:00,
2013-06-12 04:01:00,51.0,33.0,29.51,North,352,0.0,0.0,50,0.00,,,0.00,,2013-06-12 12:01:00,
2013-06-12 04:11:00,50.0,33.0,29.51,North,352,0.0,0.0,51,0.00,,,0.00,,2013-06-12 12:11:00,
2013-06-12 04:23:00,50.0,33.0,29.51,North,352,0.0,0.0,51,0.00,,,0.00,,2013-06-12 12:23:00,
2013-06-12 04:33:00,50.0,33.0,29.51,North,352,0.0,0.0,51,0.00,,,0.00,,2013-06-12 12:33:00,
2013-06-12 04:42:00,49.0,32.0,29.51,North,352,0.0,0.0,52,0.00,,,0.00,,2013-06-12 12:42:00,
2013-06-12 04:53:00,49.0,32.0,29.51,North,352,0.0,0.0,52,0.00,,,0.00,,2013-06-12 12:53:00,
2013-06-12 05:01:00,49.0,32.0,29.50,North,352,0.0,0.0,52,0.00,,,0.00,,2013-06-12 13:01:00,
2013-06-12 05:11:00,49.0,33.0,29.50,North,352,0.0,0.0,53,0.00,,,0.00,,2013-06-12 13:11:00,
2013-06-12 05:22:00,49.0,33.0,29.50,North,352,0.0,0.0,53,0.00,,,0.00,,2013-06-12 13:22:00,
2013-06-12 05:32:00,49.0,33.0,29.51,North,352,0.0,0.0,53,0.00,,,0.00,,2013-06-12 13:32:00,
2013-06-12 05:43:00,48.0,33.0,29.51,North,352,0.0,0.0,56,0.00,,,0.00,,2013-06-12 13:43:00,
2013-06-12 05:53:00,48.0,33.0,29.51,North,352,0.0,0.0,56,0.00,,,0.00,,2013-06-12 13:53:00,
2013-06-12 06:01:00,48.0,33.0,29.51,North,352,0.0,0.0,56,0.00,,,0.00,,2013-06-12 14:01:00,
2013-06-12 06:11:00,47.0,33.0,29.51,North,352,0.0,0.0,58,0.00,,,0.00,,2013-06-12 14:11:00,
2013-06-12 06:23:00,47.0,33.0,29.51,North,352,0.0,0.0,58,0.00,,,0.00,,2013-06-12 14:23:00,
2013-06-12 06:33:00,47.0,33.0,29.51,North,352,0.0,0.0,59,0.00,,,0.00,,2013-06-12 14:33:00,
2013-06-12 06:43:00,47.0,33.0,29.51,North,352,0.0,0.0,59,0.00,,,0.00,,2013-06-12 14:43:00,
2013-06-12 06:53:00,47.0,33.0,29.51,North,352,0.0,0.0,59,0.00,,,0.00,,2013-06-12 14:53:00,
2013-06-12 07:01:00,48.0,34.0,29.51,North,352,0.0,0.0,58,0.00,,,0.00,,2013-06-12 15:01:00,
2013-06-12 07:11:00,48.0,34.0,29.50,North,352,0.0,0.0,59,0.00,,,0.00,,2013-06-12 15:11:00,
2013-06-12 07:23:00,48.0,34.0,29.50,North,352,0.0,0.0,59,0.00,,,0.00,,2013-06-12 15:23:00,
2013-06-12 07:32:00,48.0,34.0,29.50,North,352,0.0,0.0,59,0.00,,,0.00,,2013-06-12 15:32:00,
2013-06-12 07:43:00,49.0,36.0,29.51,North,352,0.0,0.0,60,0.00,,,0.00,,2013-06-12 15:43:00,
2013-06-12 07:52:00,49.0,36.0,29.50,NNW,340,0.0,0.0,60,0.00,,,0.00,,2013-06-12 15:52:00,
2013-06-12 08:01:00,49.0,36.0,29.50,NNW,340,0.0,0.0,60,0.00,,,0.00,,2013-06-12 16:01:00,
2013-06-12 08:11:00,50.0,36.0,29.50,NNW,340,0.0,0.0,59,0.00,,,0.00,,2013-06-12 16:11:00,
2013-06-12 08:21:00,50.0,36.0,29.50,NNW,340,0.0,0.0,59,0.00,,,0.00,,2013-06-12 16:21:00,
2013-06-12 08:32:00,51.0,36.0,29.51,NNW,340,0.0,0.0,57,0.00,,,0.00,,2013-06-12 16:32:00,
2013-06-12 08:43:00,52.0,37.0,29.51,NNW,340,0.0,0.0,56,0.00,,,0.00,,2013-06-12 16:43:00,
2013-06-12 08:52:00,54.0,37.0,29.51,NNW,340,0.0,0.0,52,0.00,,,0.00,,2013-06-12 16:52:00,
2013-06-12 09:01:00,54.0,37.0,29.51,NNW,340,0.0,0.0,52,0.00,,,0.00,,2013-06-12 17:01:00,
2013-06-12 09:11:00,55.0,37.0,29.51,West,265,0.0,0.0,51,0.00,,,0.00,,2013-06-12 17:11:00,
2013-06-12 09:22:00,57.0,36.0,29.50,NW,324,0.0,0.0,46,0.00,,,0.00,,2013-06-12 17:22:00,
2013-06-12 09:32:00,57.0,36.0,29.50,NW,324,0.0,0.0,46,0.00,,,0.00,,2013-06-12 17:32:00,
2013-06-12 09:42:00,59.0,36.0,29.50,West,264,0.0,0.0,42,0.00,,,0.00,,2013-06-12 17:42:00,
2013-06-12 09:52:00,62.0,36.0,29.50,SSE,156,0.0,0.0,38,0.00,,,0.00,,2013-06-12 17:52:00,
2013-06-12 10:02:00,62.0,36.0,29.50,SSE,156,0.0,0.0,38,0.00,,,0.00,,2013-06-12 18:02:00,
2013-06-12 10:12:00,63.0,36.0,29.50,North,0,0.0,0.0,36,0.00,,,0.00,,2013-06-12 18:12:00,
2013-06-12 10:22:00,63.0,36.0,29.50,SSE,158,0.0,0.0,36,0.00,,,0.00,,2013-06-12 18:22:00,
2013-06-12 10:32:00,63.0,36.0,29.50,SSE,158,0.0,0.0,36,0.00,,,0.00,,2013-06-12 18:32:00,
2013-06-12 10:43:00,64.0,37.0,29.50,West,279,0.0,1.0,36,0.00,,,0.00,,2013-06-12 18:43:00,
2013-06-12 10:53:00,64.0,36.0,29.49,WSW,255,0.0,1.0,35,0.00,,,0.00,,2013-06-12 18:53:00,
2013-06-12 11:01:00,64.0,36.0,29.49,WSW,255,0.0,1.0,35,0.00,,,0.00,,2013-06-12 19:01:00,
2013-06-12 11:11:00,63.0,33.0,29.49,ESE,104,0.0,1.0,33,0.00,,,0.00,,2013-06-12 19:11:00,
2013-06-12 11:22:00,63.0,33.0,29.49,ESE,104,0.0,1.0,33,0.00,,,0.00,,2013-06-12 19:22:00,
2013-06-12 11:32:00,63.0,33.0,29.49,ESE,104,0.0,1.0,33,0.00,,,0.00,,2013-06-12 19:32:00,
2013-06-12 11:42:00,63.0,33.0,29.49,WNW,286,0.0,1.0,33,0.00,,,0.00,,2013-06-12 19:42:00,
2013-06-12 11:52:00,63.0,33.0,29.49,WNW,286,0.0,1.0,33,0.00,,,0.00,,2013-06-12 19:52:00,
2013-06-12 12:01:00,64.0,34.0,29.49,SE,124,0.0,1.0,32,0.00,,,0.00,,2013-06-12 20:01:00,
2013-06-12 12:11:00,64.0,34.0,29.48,SE,124,0.0,1.0,33,0.00,,,0.00,,2013-06-12 20:11:00,
2013-06-12 12:21:00,64.0,34.0,29.48,SE,124,0.0,1.0,33,0.00,,,0.00,,2013-06-12 20:21:00,
2013-06-12 12:32:00,64.0,34.0,29.48,SE,124,0.0,1.0,33,0.00,,,0.00,,2013-06-12 20:32:00,
2013-06-12 12:42:00,64.0,34.0,29.47,North,2,0.0,1.0,32,0.00,,,0.00,,2013-06-12 20:42:00,
2013-06-12 12:53:00,64.0,34.0,29.47,North,2,0.0,1.0,32,0.00,,,0.00,,2013-06-12 20:53:00,
2013-06-12 13:01:00,65.0,33.0,29.47,ENE,61,0.0,1.0,30,0.00,,,0.00,,2013-06-12 21:01:00,
2013-06-12 13:11:00,67.0,33.0,29.47,North,353,0.0,1.0,28,0.00,,,0.00,,2013-06-12 21:11:00,
2013-06-12 13:21:00,69.0,34.0,29.47,NNW,346,0.0,1.0,27,0.00,,,0.00,,2013-06-12 21:21:00,
2013-06-12 13:33:00,69.0,34.0,29.47,NNW,346,0.0,1.0,27,0.00,,,0.00,,2013-06-12 21:33:00,
2013-06-12 13:43:00,70.0,34.0,29.46,NNW,329,0.0,1.0,27,0.00,,,0.00,,2013-06-12 21:43:00,
2013-06-12 13:52:00,72.0,35.0,29.46,East,81,0.0,1.0,26,0.00,,,0.00,,2013-06-12 21:52:00,
2013-06-12 14:01:00,72.0,35.0,29.46,East,81,0.0,1.0,26,0.00,,,0.00,,2013-06-12 22:01:00,
2013-06-12 14:11:00,73.0,36.0,29.46,SSE,155,0.0,1.0,26,0.00,,,0.00,,2013-06-12 22:11:00,
2013-06-12 14:22:00,73.0,36.0,29.46,SSE,155,0.0,1.0,26,0.00,,,0.00,,2013-06-12 22:22:00,
2013-06-12 14:32:00,74.0,35.0,29.45,SSW,208,0.0,1.0,24,0.00,,,0.00,,2013-06-12 22:32:00,
2013-06-12 14:43:00,74.0,33.0,29.45,WNW,303,0.0,1.0,22,0.00,,,0.00,,2013-06-12 22:43:00,
2013-06-12 14:52:00,74.0,33.0,29.45,WNW,303,0.0,1.0,22,0.00,,,0.00,,2013-06-12 22:52:00,
2013-06-12 15:01:00,73.0,34.0,29.44,West,274,1.0,5.0,24,0.00,,,0.00,,2013-06-12 23:01:00,
2013-06-12 15:11:00,73.0,34.0,29.45,West,269,0.0,5.0,24,0.00,,,0.00,,2013-06-12 23:11:00,
2013-06-12 15:22:00,73.0,34.0,29.45,West,269,0.0,5.0,24,0.00,,,0.00,,2013-06-12 23:22:00,
2013-06-12 15:32:00,73.0,34.0,29.45,West,269,0.0,5.0,24,0.00,,,0.00,,2013-06-12 23:32:00,
2013-06-12 15:42:00,71.0,32.0,29.44,SW,225,0.0,5.0,24,0.00,,,0.00,,2013-06-12 23:42:00,
2013-06-12 15:52:00,71.0,32.0,29.44,NNE,27,0.0,5.0,24,0.00,,,0.00,,2013-06-12 23:52:00,
2013-06-12 16:01:00,71.0,32.0,29.44,NNE,27,0.0,5.0,24,0.00,,,0.00,,2013-06-13 00:01:00,
2013-06-12 16:11:00,70.0,30.0,29.44,ESE,120,0.0,5.0,23,0.00,,,0.00,,2013-06-13 00:11:00,
2013-06-12 16:22:00,70.0,32.0,29.44,East,94,0.0,5.0,24,0.00,,,0.00,,2013-06-13 00:22:00,
2013-06-12 16:32:00,70.0,32.0,29.44,East,94,0.0,5.0,24,0.00,,,0.00,,2013-06-13 00:32:00,
2013-06-12 16:42:00,70.0,30.0,29.44,SSW,201,0.0,5.0,23,0.00,,,0.00,,2013-06-13 00:42:00,
2013-06-12 16:52:00,69.0,31.0,29.43,WNW,293,0.0,5.0,24,0.00,,,0.00,,2013-06-13 00:52:00,
2013-06-12 17:01:00,69.0,31.0,29.43,WNW,293,0.0,5.0,24,0.00,,,0.00,,2013-06-13 01:01:00,
2013-06-12 17:11:00,69.0,30.0,29.43,WNW,287,0.0,5.0,23,0.00,,,0.00,,2013-06-13 01:11:00,
2013-06-12 17:22:00,69.0,30.0,29.43,WNW,287,0.0,5.0,23,0.00,,,0.00,,2013-06-13 01:22:00,
2013-06-12 17:32:00,69.0,31.0,29.43,NW,312,0.0,5.0,24,0.00,,,0.00,,2013-06-13 01:32:00,
2013-06-12 17:42:00,69.0,29.0,29.43,WNW,284,1.0,5.0,22,0.00,,,0.00,,2013-06-13 01:42:00,
2013-06-12 17:52:00,69.0,29.0,29.43,WNW,284,1.0,5.0,22,0.00,,,0.00,,2013-06-13 01:52:00,
2013-06-12 18:01:00,69.0,31.0,29.43,North,0,0.0,5.0,24,0.00,,,0.00,,2013-06-13 02:01:00,
2013-06-12 18:11:00,69.0,31.0,29.43,NW,313,0.0,5.0,24,0.00,,,0.00,,2013-06-13 02:11:00,
2013-06-12 18:21:00,69.0,31.0,29.43,East,81,0.0,5.0,24,0.00,,,0.00,,2013-06-13 02:21:00,
2013-06-12 18:32:00,69.0,31.0,29.43,East,81,0.0,5.0,24,0.00,,,0.00,,2013-06-13 02:32:00,
2013-06-12 18:42:00,69.0,31.0,29.43,ENE,73,0.0,5.0,24,0.00,,,0.00,,2013-06-13 02:42:00,
2013-06-12 18:52:00,68.0,30.0,29.43,SW,215,0.0,5.0,24,0.00,,,0.00,,2013-06-13 02:52:00,
2013-06-12 19:01:00,68.0,30.0,29.43,SW,215,0.0,5.0,24,0.00,,,0.00,,2013-06-13 03:01:00,
2013-06-12 19:11:00,68.0,30.0,29.43,NE,56,0.0,5.0,24,0.00,,,0.00,,2013-06-13 03:11:00,
2013-06-12 19:22:00,68.0,30.0,29.43,North,9,0.0,5.0,24,0.00,,,0.00,,2013-06-13 03:22:00,
2013-06-12 19:33:00,68.0,30.0,29.43,North,9,0.0,5.0,24,0.00,,,0.00,,2013-06-13 03:33:00,
2013-06-12 19:42:00,68.0,30.0,29.43,North,0,0.0,5.0,24,0.00,,,0.00,,2013-06-13 03:42:00,
2013-06-12 19:52:00,68.0,30.0,29.43,East,92,0.0,5.0,24,0.00,,,0.00,,2013-06-13 03:52:00,
2013-06-12 20:01:00,68.0,30.0,29.43,East,92,0.0,5.0,24,0.00,,,0.00,,2013-06-13 04:01:00,
2013-06-12 20:11:00,67.0,30.0,29.43,NNW,329,0.0,5.0,25,0.00,,,0.00,,2013-06-13 04:11:00,
2013-06-12 20:22:00,67.0,31.0,29.43,WSW,244,0.0,5.0,26,0.00,,,0.00,,2013-06-13 04:22:00,
2013-06-12 20:32:00,67.0,31.0,29.43,WSW,244,0.0,5.0,26,0.00,,,0.00,,2013-06-13 04:32:00,
2013-06-12 20:43:00,67.0,31.0,29.43,NE,44,0.0,5.0,26,0.00,,,0.00,,2013-06-13 04:43:00,
2013-06-12 20:53:00,67.0,32.0,29.44,ENE,61,0.0,5.0,27,0.00,,,0.00,,2013-06-13 04:53:00,
2013-06-12 21:01:00,67.0,32.0,29.44,ENE,61,0.0,5.0,27,0.00,,,0.00,,2013-06-13 05:01:00,
2013-06-12 21:11:00,66.0,31.0,29.44,ENE,76,0.0,5.0,27,0.00,,,0.00,,2013-06-13 05:11:00,
2013-06-12 21:23:00,66.0,31.0,29.44,ENE,76,0.0,5.0,27,0.00,,,0.00,,2013-06-13 05:23:00,
2013-06-12 21:32:00,66.0,32.0,29.44,East,80,0.0,5.0,28,0.00,,,0.00,,2013-06-13 05:32:00,
2013-06-12 21:42:00,65.0,32.0,29.44,WNW,291,0.0,5.0,29,0.00,,,0.00,,2013-06-13 05:42:00,
2013-06-12 21:52:00,65.0,32.0,29.44,WNW,291,0.0,5.0,29,0.00,,,0.00,,2013-06-13 05:52:00,
2013-06-12 22:02:00,65.0,33.0,29.45,WNW,291,0.0,5.0,30,0.00,,,0.00,,2013-06-13 06:02:00,
2013-06-12 22:11:00,64.0,33.0,29.45,WNW,291,0.0,5.0,31,0.00,,,0.00,,2013-06-13 06:11:00,
2013-06-12 22:21:00,64.0,33.0,29.45,WNW,291,0.0,5.0,31,0.00,,,0.00,,2013-06-13 06:21:00,
2013-06-12 22:33:00,64.0,33.0,29.45,WNW,291,0.0,5.0,31,0.00,,,0.00,,2013-06-13 06:33:00,
2013-06-12 22:44:00,63.0,33.0,29.45,WNW,291,0.0,5.0,33,0.00,,,0.00,,2013-06-13 06:44:00,
2013-06-12 22:52:00,62.0,33.0,29.46,West,277,0.0,5.0,34,0.00,,,0.00,,2013-06-13 06:52:00,
2013-06-12 23:01:00,62.0,33.0,29.46,West,277,0.0,5.0,34,0.00,,,0.00,,2013-06-13 07:01:00,
2013-06-12 23:11:00,62.0,34.0,29.47,West,267,0.0,5.0,35,0.00,,,0.00,,2013-06-13 07:11:00,
2013-06-12 23:22:00,62.0,34.0,29.47,West,267,0.0,5.0,35,0.00,,,0.00,,2013-06-13 07:22:00,
2013-06-12 23:33:00,62.0,34.0,29.47,West,267,0.0,5.0,35,0.00,,,0.00,,2013-06-13 07:33:00,
2013-06-12 23:42:00,60.0,34.0,29.47,West,267,0.0,5.0,38,0.00,,,0.00,,2013-06-13 07:42:00,
2013-06-12 23:52:00,60.0,34.0,29.47,West,267,0.0,5.0,38,0.00,,,0.00,,2013-06-13 07:52:00,